C/2012 K1 ( PanSTARRS )

Japanese version
Home page
Updated on December 16, 2014

---------------------------------------------------------------------

* Profile

Discovery Date May 19, 2012
Magnitude 19.7 mag
Discoverer Pan-STARRS 1 telescope (Haleakala)

* Pictures

* Orbital Elements

Epoch 2014 Aug. 11.0 TT = JDT 2456880.5
T 2014 Aug. 27.65535 TT                                 MPCW
q   1.0545820            (2000.0)            P               Q
z  -0.0002307      Peri.  203.10438     -0.47154327     +0.78069418
 +/-0.0000002      Node   317.73753     +0.87390034     +0.47596888
e   1.0002432      Incl.  142.42819     +0.11808954     -0.40493237
From 6241 observations 2012 May 14-2014 Nov. 16, mean residual 0".7.

* Finding Charts

* Magnitudes Graph

        m1 = 5.5 + 5 log d + 8.5 log r(t + 15)

---------------------------------------------------------------------

The orbital elements are published on M.P.E.C. 2014-W05.
The charts are made with StellaNavigator Ver.8 (AstroArts).
The magnitudes graphs are made with Comet for Windows.

---------------------------------------------------------------------

Copyright(C) Seiichi Yoshida (comet@aerith.net). All rights reserved.